Regional Weather Roundup
Issued by NWS Binghamton, NY

Current Version | Previous Version | Text Only | Print | Product List | Glossary On
Versions: 1 2 3 4 5 6 7 8 9 10 11 12 13 14 15 16 17 18 19 20 21 22 23 24 25 26 27
000
ASUS41 KBGM 241110
RWRBGM
RWRBGM
BINGHAMTON REGIONAL WEATHER ROUNDUP
NATIONAL WEATHER SERVICE BINGHAMTON NY
700 AM EDT THU APR 24 2014

Note: "fair" indicates few or no clouds below 12,000 feet with no
significant weather and/or obstructions to visibility.

* = Station(s) that does not report precipitation, such as rain,
snow, etc, also no thunder or fog.

!NYZ009-015>018-022>025-036-037-044>046-055>057-062-241200
...CENTRAL NEW YORK...

CITY           SKY/WX    TMP DP  RH WIND       PRES   REMARKS
BINGHAMTON     CLEAR     31  19  61 NW7       29.96R WCI  24
CORTLAND       FAIR      32  21  64 CALM      30.02R
DANSVILLE      CLEAR     27  22  81 CALM      30.11R
ELMIRA         CLEAR     31  20  63 SW7       30.05R WCI  24
ITHACA         CLEAR     31  23  72 NW8       30.03R WCI  24
HAMILTON       SUNNY     36  19  51 NW12      29.96  WCI  27
HORNELL        SUNNY     23  19  86 CALM      30.12R
MONTICELLO     CLEAR     34  16  47 NW17G28   29.89R WCI  23
NORWICH        CLEAR     34  16  47 N10G20    29.97R WCI  26
ONEONTA        CLEAR     30  16  55 NW5       29.91R WCI  25
PENN YAN       CLEAR     34  20  56 NW8       30.06R WCI  27
ROME           CLEAR     32  20  61 W12       30.00R WCI  23
SIDNEY         CLEAR     34  19  55 NW6       29.97R WCI  29
SYRACUSE       CLEAR     35  21  56 W9        30.04R WCI  28
$$

!PAZ038>040-043-044-047-048-072-241200
...NORTHEAST PENNSYLVANIA...

CITY           SKY/WX    TMP DP  RH WIND       PRES   REMARKS
SCRANTON       CLEAR     35  18  49 VRB7      29.98R WCI  29
TOWANDA*       SUNNY     34  18  51 SW7       30.05R WCI  28
$$
&&
KEY
WCI = WIND CHILL INDEX
VSB = VISIBILITY
HX  = HEAT INDEX
$$



USA.gov is the U.S. government's official web portal to all federal, state and local government web resources and services.